| time (UTC) | temp C | wind direction | speed KPH | gust KPH | rain 1hr cm | rain 24hr cm | rain mn cm | humidity % | barometer mb |
| 20260505111935 | 13 | 148 | 1.6 | 1.6 | 0.00 | 0.00 | 0.00 | 83 | 1010.4 |
| 20260505111432 | 13 | 148 | 0.0 | 1.6 | 0.00 | 0.00 | 0.00 | 83 | 1010.4 |
| 20260505110935 | 13 | 148 | 0.0 | 0.0 | 0.00 | 0.00 | 0.00 | 84 | 1010.3 |
| 20260505110434 | 13 | 148 | 0.0 | 0.0 | 0.00 | 0.00 | 0.00 | 84 | 1010.3 |
| 20260505101934 | 12 | 148 | 0.0 | 0.0 | 0.00 | 0.00 | 0.00 | 83 | 1010.1 |
| 20260505101435 | 13 | 148 | 0.0 | 0.0 | 0.00 | 0.00 | 0.00 | 83 | 1010.0 |
| 20260505100932 | 13 | 148 | 0.0 | 0.0 | 0.00 | 0.00 | 0.00 | 83 | 1009.9 |
| 20260505100435 | 13 | 148 | 0.0 | 0.0 | 0.00 | 0.00 | 0.00 | 83 | 1009.8 |
| 20260505095934 | 13 | 148 | 0.0 | 0.0 | 0.00 | 0.00 | 0.00 | 83 | 1009.7 |
| 20260505095438 | 13 | 148 | 0.0 | 0.0 | 0.00 | 0.00 | 0.00 | 83 | 1009.7 |
| 20260505094935 | 13 | 148 | 0.0 | 1.6 | 0.00 | 0.00 | 0.00 | 82 | 1009.8 |
| 20260505094438 | 13 | 148 | 1.6 | 3.2 | 0.00 | 0.00 | 0.00 | 83 | 1009.7 |
| 20260505093931 | 13 | 148 | 1.6 | 3.2 | 0.00 | 0.00 | 0.00 | 81 | 1009.7 |
| 20260505093434 | 13 | 148 | 0.0 | 1.6 | 0.00 | 0.00 | 0.00 | 81 | 1009.8 |
| 20260505092935 | 13 | 148 | 0.0 | 1.6 | 0.00 | 0.00 | 0.00 | 81 | 1009.8 |
| 20260505092432 | 13 | 148 | 0.0 | 3.2 | 0.00 | 0.00 | 0.00 | 81 | 1009.6 |
| 20260505091932 | 13 | 148 | 0.0 | 3.2 | 0.00 | 0.00 | 0.00 | 80 | 1009.6 |
| 20260505091431 | 13 | 148 | 0.0 | 0.0 | 0.00 | 0.00 | 0.00 | 81 | 1009.6 |
| 20260505090931 | 13 | 148 | 0.0 | 0.0 | 0.00 | 0.00 | 0.00 | 82 | 1009.6 |
| 20260505090431 | 13 | 148 | 0.0 | 0.0 | 0.00 | 0.00 | 0.00 | 81 | 1009.6 |
| 20260505085932 | 13 | 148 | 0.0 | 0.0 | 0.00 | 0.00 | 0.00 | 80 | 1009.6 |
| 20260505085435 | 13 | 148 | 0.0 | 0.0 | 0.00 | 0.00 | 0.00 | 80 | 1009.7 |
| 20260505084937 | 13 | 148 | 0.0 | 1.6 | 0.00 | 0.00 | 0.00 | 80 | 1009.7 |
| 20260505084434 | 13 | 148 | 0.0 | 1.6 | 0.00 | 0.00 | 0.00 | 78 | 1009.6 |
| 20260505083934 | 14 | 148 | 0.0 | 0.0 | 0.00 | 0.00 | 0.00 | 77 | 1009.6 |
| 20260505083431 | 14 | 148 | 0.0 | 0.0 | 0.00 | 0.00 | 0.00 | 77 | 1009.7 |
| 20260505082938 | 14 | 148 | 0.0 | 3.2 | 0.00 | 0.00 | 0.00 | 76 | 1009.6 |
| 20260505082435 | 14 | 148 | 0.0 | 0.0 | 0.00 | 0.00 | 0.00 | 76 | 1009.7 |
| 20260505081935 | 14 | 148 | 0.0 | 3.2 | 0.00 | 0.00 | 0.00 | 76 | 1009.7 |
| 20260505081434 | 14 | 163 | 0.0 | 4.8 | 0.00 | 0.00 | 0.00 | 76 | 1009.8 |
| 20260505080932 | 15 | 167 | 0.0 | 0.0 | 0.00 | 0.00 | 0.00 | 74 | 1009.8 |
| 20260505080435 | 15 | 167 | 0.0 | 3.2 | 0.00 | 0.00 | 0.00 | 73 | 1009.7 |
| 20260505075934 | 15 | 157 | 1.6 | 3.2 | 0.00 | 0.00 | 0.00 | 73 | 1009.8 |
| 20260505075437 | 15 | 189 | 1.6 | 1.6 | 0.00 | 0.00 | 0.00 | 73 | 1009.8 |
| 20260505074931 | 14 | 198 | 0.0 | 1.6 | 0.00 | 0.00 | 0.00 | 74 | 1009.7 |
| 20260505074432 | 14 | 184 | 1.6 | 1.6 | 0.00 | 0.00 | 0.00 | 75 | 1009.6 |
| 20260505073934 | 13 | 199 | 0.0 | 3.2 | 0.00 | 0.00 | 0.00 | 76 | 1009.7 |
| 20260505073431 | 13 | 199 | 0.0 | 1.6 | 0.00 | 0.00 | 0.00 | 76 | 1009.6 |
| 20260505072937 | 13 | 199 | 0.0 | 0.0 | 0.00 | 0.00 | 0.00 | 76 | 1009.6 |
| 20260505072438 | 13 | 199 | 0.0 | 0.0 | 0.00 | 0.00 | 0.00 | 76 | 1009.6 |
| 20260505071931 | 13 | 199 | 0.0 | 1.6 | 0.00 | 0.00 | 0.00 | 76 | 1009.6 |
| 20260505071434 | 13 | 199 | 0.0 | 3.2 | 0.00 | 0.00 | 0.00 | 75 | 1009.6 |
| 20260505070931 | 13 | 199 | 0.0 | 0.0 | 0.00 | 0.00 | 0.00 | 73 | 1009.7 |
| 20260505070434 | 14 | 199 | 0.0 | 3.2 | 0.00 | 0.00 | 0.00 | 73 | 1009.6 |
| 20260505065931 | 14 | 238 | 0.0 | 0.0 | 0.00 | 0.00 | 0.00 | 73 | 1009.6 |
| 20260505065435 | 14 | 238 | 0.0 | 6.4 | 0.00 | 0.00 | 0.00 | 72 | 1009.5 |
| 20260505064931 | 15 | 167 | 0.0 | 6.4 | 0.00 | 0.00 | 0.00 | 72 | 1009.4 |
| 20260505064435 | 15 | 192 | 4.8 | 8.0 | 0.00 | 0.00 | 0.00 | 71 | 1009.4 |
| 20260505063935 | 15 | 169 | 1.6 | 6.4 | 0.00 | 0.00 | 0.00 | 71 | 1009.4 |
| 20260505063431 | 14 | 156 | 4.8 | 4.8 | 0.00 | 0.00 | 0.00 | 71 | 1009.5 |
| 20260505062933 | 14 | 166 | 0.0 | 4.8 | 0.00 | 0.00 | 0.00 | 71 | 1009.6 |
| 20260505062434 | 14 | 159 | 4.8 | 3.2 | 0.00 | 0.00 | 0.00 | 72 | 1009.6 |
| 20260505061935 | 14 | 169 | 0.0 | 3.2 | 0.00 | 0.00 | 0.00 | 72 | 1009.6 |
| 20260505061431 | 14 | 209 | 0.0 | 1.6 | 0.00 | 0.00 | 0.00 | 71 | 1009.6 |
| 20260505060931 | 14 | 228 | 0.0 | 1.6 | 0.00 | 0.00 | 0.00 | 72 | 1009.6 |
| 20260505060431 | 14 | 209 | 1.6 | 1.6 | 0.00 | 0.00 | 0.00 | 72 | 1009.6 |
| 20260505055934 | 14 | 208 | 0.0 | 1.6 | 0.00 | 0.00 | 0.00 | 72 | 1009.6 |
| 20260505055431 | 14 | 198 | 0.0 | 1.6 | 0.00 | 0.00 | 0.00 | 71 | 1009.6 |
| 20260505054935 | 14 | 184 | 0.0 | 4.8 | 0.00 | 0.00 | 0.00 | 71 | 1009.7 |
| 20260505054434 | 14 | 188 | 0.0 | 1.6 | 0.00 | 0.00 | 0.00 | 71 | 1009.6 |
| 20260505053933 | 14 | 188 | 0.0 | 3.2 | 0.00 | 0.00 | 0.00 | 71 | 1009.7 |
| 20260505053436 | 14 | 148 | 0.0 | 3.2 | 0.00 | 0.00 | 0.00 | 71 | 1009.7 |
| 20260505052931 | 14 | 164 | 0.0 | 6.4 | 0.00 | 0.00 | 0.00 | 71 | 1009.7 |
| 20260505052431 | 15 | 210 | 0.0 | 4.8 | 0.00 | 0.00 | 0.00 | 71 | 1009.8 |
| 20260505051932 | 15 | 169 | 0.0 | 3.2 | 0.00 | 0.00 | 0.00 | 71 | 1009.8 |
| 20260505051434 | 15 | 148 | 1.6 | 3.2 | 0.00 | 0.00 | 0.00 | 70 | 1009.8 |
| 20260505050932 | 15 | 146 | 0.0 | 3.2 | 0.00 | 0.00 | 0.00 | 70 | 1009.7 |
| 20260505050432 | 15 | 175 | 0.0 | 4.8 | 0.00 | 0.00 | 0.00 | 69 | 1009.8 |
| 20260505041432 | 15 | 158 | 1.6 | 9.7 | 0.00 | 0.00 | 0.00 | 66 | 1009.8 |
| 20260505040931 | 15 | 157 | 0.0 | 8.0 | 0.00 | 0.00 | 0.00 | 65 | 1009.8 |
| 20260505040438 | 15 | 148 | 0.0 | 11.3 | 0.00 | 0.00 | 0.00 | 65 | 1009.7 |
| 20260505035934 | 16 | 165 | 4.8 | 6.4 | 0.00 | 0.00 | 0.00 | 64 | 1009.8 |
| 20260505035434 | 16 | 190 | 0.0 | 9.7 | 0.00 | 0.00 | 0.00 | 64 | 1009.8 |
| 20260505034932 | 16 | 175 | 4.8 | 9.7 | 0.00 | 0.00 | 0.00 | 63 | 1009.8 |
| 20260505034434 | 16 | 166 | 11.3 | 12.9 | 0.00 | 0.00 | 0.00 | 63 | 1009.8 |
| 20260505033934 | 16 | 161 | 0.0 | 9.7 | 0.00 | 0.00 | 0.00 | 62 | 1009.8 |
| 20260505033437 | 16 | 162 | 4.8 | 6.4 | 0.00 | 0.00 | 0.00 | 62 | 1009.9 |
| 20260505032931 | 16 | 157 | 4.8 | 9.7 | 0.00 | 0.00 | 0.00 | 61 | 1009.8 |
| 20260505032440 | 16 | 173 | 1.6 | 9.7 | 0.00 | 0.00 | 0.00 | 61 | 1009.9 |
| 20260505031937 | 16 | 264 | 0.0 | 9.7 | 0.00 | 0.00 | 0.00 | 60 | 1009.9 |
| 20260505031437 | 16 | 150 | 1.6 | 9.7 | 0.00 | 0.00 | 0.00 | 59 | 1010.1 |
| 20260505030935 | 16 | 173 | 0.0 | 6.4 | 0.00 | 0.00 | 0.00 | 59 | 1010.1 |
| 20260505030432 | 16 | 168 | 1.6 | 8.0 | 0.00 | 0.00 | 0.00 | 58 | 1010.1 |
| 20260505025931 | 16 | 173 | 0.0 | 6.4 | 0.00 | 0.00 | 0.00 | 57 | 1010.1 |
| 20260505025434 | 16 | 201 | 0.0 | 9.7 | 0.00 | 0.00 | 0.00 | 57 | 1010.2 |
| 20260505024935 | 17 | 157 | 4.8 | 8.0 | 0.00 | 0.00 | 0.00 | 56 | 1010.1 |
| 20260505024437 | 17 | 211 | 0.0 | 9.7 | 0.00 | 0.00 | 0.00 | 55 | 1010.1 |
| 20260505023934 | 17 | 178 | 6.4 | 11.3 | 0.00 | 0.00 | 0.00 | 54 | 1010.1 |
| 20260505023432 | 17 | 160 | 0.0 | 12.9 | 0.00 | 0.00 | 0.00 | 54 | 1010.1 |
| 20260505022937 | 17 | 161 | 1.6 | 9.7 | 0.00 | 0.00 | 0.00 | 53 | 1010.2 |
| 20260505022432 | 17 | 186 | 6.4 | 16.1 | 0.00 | 0.00 | 0.00 | 52 | 1010.1 |
| 20260505021937 | 17 | 151 | 4.8 | 11.3 | 0.00 | 0.00 | 0.00 | 52 | 1010.2 |
| 20260505021435 | 17 | 169 | 20.9 | 14.5 | 0.00 | 0.00 | 0.00 | 50 | 1010.1 |
| 20260505020931 | 17 | 160 | 0.0 | 9.7 | 0.00 | 0.00 | 0.00 | 50 | 1010.2 |
| 20260505020435 | 17 | 165 | 11.3 | 14.5 | 0.00 | 0.00 | 0.00 | 49 | 1010.2 |
| 20260505015941 | 17 | 344 | 1.6 | 8.0 | 0.00 | 0.00 | 0.00 | 50 | 1010.1 |
| 20260505015434 | 18 | 153 | 0.0 | 11.3 | 0.00 | 0.00 | 0.00 | 48 | 1010.1 |
| 20260505014932 | 18 | 197 | 1.6 | 8.0 | 0.00 | 0.00 | 0.00 | 48 | 1010.1 |
| 20260505014431 | 18 | 165 | 4.8 | 12.9 | 0.00 | 0.00 | 0.00 | 47 | 1010.1 |
| 20260505013931 | 18 | 165 | 1.6 | 8.0 | 0.00 | 0.00 | 0.00 | 48 | 1010.1 |
| 20260505013437 | 17 | 165 | 9.7 | 6.4 | 0.00 | 0.00 | 0.00 | 48 | 1010.0 |
| 20260505012932 | 18 | 164 | 1.6 | 6.4 | 0.00 | 0.00 | 0.00 | 50 | 1010.0 |
| 20260505012431 | 17 | 170 | 4.8 | 14.5 | 0.00 | 0.00 | 0.00 | 48 | 1009.9 |
| 20260505011936 | 17 | 186 | 9.7 | 6.4 | 0.00 | 0.00 | 0.00 | 49 | 1009.8 |
| 20260505011431 | 17 | 114 | 0.0 | 6.4 | 0.00 | 0.00 | 0.00 | 49 | 1009.8 |
| 20260505010931 | 17 | 165 | 0.0 | 3.2 | 0.00 | 0.00 | 0.00 | 51 | 1009.7 |
| 20260505010431 | 17 | 163 | 0.0 | 3.2 | 0.00 | 0.00 | 0.00 | 49 | 1009.6 |
| 20260505005935 | 18 | 178 | 0.0 | 6.4 | 0.00 | 0.00 | 0.00 | 48 | 1009.5 |
| 20260505005435 | 18 | 163 | 1.6 | 6.4 | 0.00 | 0.00 | 0.00 | 49 | 1009.5 |
| 20260505004935 | 18 | 165 | 1.6 | 6.4 | 0.00 | 0.00 | 0.00 | 51 | 1009.5 |
| 20260505004438 | 18 | 161 | 1.6 | 4.8 | 0.00 | 0.00 | 0.00 | 48 | 1009.4 |
| 20260505003934 | 18 | 163 | 0.0 | 3.2 | 0.00 | 0.00 | 0.00 | 47 | 1009.5 |
| 20260505003435 | 18 | 163 | 0.0 | 8.0 | 0.00 | 0.00 | 0.00 | 45 | 1009.4 |
| 20260505002940 | 19 | 153 | 0.0 | 6.4 | 0.00 | 0.00 | 0.00 | 45 | 1009.3 |
| 20260505002434 | 19 | 158 | 4.8 | 8.0 | 0.00 | 0.00 | 0.00 | 44 | 1009.3 |
| 20260505001931 | 20 | 169 | 1.6 | 9.7 | 0.00 | 0.00 | 0.00 | 41 | 1009.2 |
| 20260505001435 | 20 | 158 | 6.4 | 6.4 | 0.00 | 0.00 | 0.00 | 42 | 1009.2 |
| 20260505000932 | 20 | 180 | 4.8 | 4.8 | 0.00 | 0.00 | 0.00 | 41 | 1009.2 |
| 20260505000431 | 20 | 161 | 1.6 | 9.7 | 0.00 | 0.00 | 0.00 | 41 | 1009.1 |
| 20260504235934 | 20 | 156 | 1.6 | 3.2 | 0.00 | 0.00 | 0.00 | 41 | 1009.1 |
| 20260504235437 | 20 | 156 | 1.6 | 3.2 | 0.00 | 0.00 | 0.00 | 40 | 1009.1 |
| 20260504234931 | 21 | 213 | 1.6 | 6.4 | 0.00 | 0.00 | 0.00 | 38 | 1009.0 |
| 20260504234437 | 21 | 150 | 1.6 | 6.4 | 0.00 | 0.00 | 0.00 | 38 | 1009.0 |
| 20260504233938 | 21 | 163 | 1.6 | 11.3 | 0.00 | 0.00 | 0.00 | 38 | 1008.8 |
| 20260504233432 | 21 | 158 | 14.5 | 11.3 | 0.00 | 0.00 | 0.00 | 38 | 1008.8 |
| 20260504232934 | 21 | 180 | 4.8 | 11.3 | 0.00 | 0.00 | 0.00 | 37 | 1008.7 |
| 20260504232434 | 21 | 138 | 6.4 | 19.3 | 0.00 | 0.00 | 0.00 | 36 | 1008.8 |
| 20260504231937 | 21 | 176 | 11.3 | 12.9 | 0.00 | 0.00 | 0.00 | 36 | 1008.8 |
| 20260504231434 | 21 | 171 | 4.8 | 17.7 | 0.00 | 0.00 | 0.00 | 36 | 1008.7 |
| 20260504230937 | 21 | 202 | 6.4 | 14.5 | 0.00 | 0.00 | 0.00 | 36 | 1008.6 |
| 20260504230434 | 21 | 206 | 1.6 | 14.5 | 0.00 | 0.00 | 0.00 | 36 | 1008.7 |
| 20260504225931 | 22 | 177 | 1.6 | 17.7 | 0.00 | 0.00 | 0.00 | 35 | 1008.7 |
| 20260504225438 | 22 | 280 | 1.6 | 14.5 | 0.00 | 0.00 | 0.00 | 35 | 1008.7 |
| 20260504224935 | 22 | 170 | 4.8 | 12.9 | 0.00 | 0.00 | 0.00 | 35 | 1008.7 |
| 20260504224437 | 22 | 161 | 1.6 | 9.7 | 0.00 | 0.00 | 0.00 | 36 | 1008.7 |
| 20260504223931 | 22 | 215 | 1.6 | 8.0 | 0.00 | 0.00 | 0.00 | 35 | 1008.7 |
| 20260504223438 | 22 | 165 | 9.7 | 11.3 | 0.00 | 0.00 | 0.00 | 34 | 1008.8 |
| 20260504222934 | 22 | 13 | 6.4 | 11.3 | 0.00 | 0.00 | 0.00 | 36 | 1008.8 |
| 20260504222431 | 22 | 258 | 4.8 | 14.5 | 0.00 | 0.00 | 0.00 | 35 | 1008.8 |
| 20260504221937 | 22 | 182 | 1.6 | 16.1 | 0.00 | 0.00 | 0.00 | 35 | 1008.7 |
| 20260504221431 | 22 | 279 | 6.4 | 22.5 | 0.00 | 0.00 | 0.00 | 34 | 1008.7 |
| 20260504220934 | 22 | 192 | 9.7 | 16.1 | 0.00 | 0.00 | 0.00 | 34 | 1008.7 |
| 20260504220435 | 22 | 152 | 4.8 | 11.3 | 0.00 | 0.00 | 0.00 | 34 | 1008.8 |
| 20260504215934 | 22 | 166 | 6.4 | 16.1 | 0.00 | 0.00 | 0.00 | 34 | 1008.8 |
| 20260504215431 | 22 | 189 | 1.6 | 20.9 | 0.00 | 0.00 | 0.00 | 35 | 1008.9 |
| 20260504214932 | 23 | 196 | 4.8 | 9.7 | 0.00 | 0.00 | 0.00 | 35 | 1008.9 |
| 20260504214437 | 22 | 153 | 6.4 | 16.1 | 0.00 | 0.00 | 0.00 | 34 | 1009.0 |
| 20260504213931 | 22 | 150 | 6.4 | 9.7 | 0.00 | 0.00 | 0.00 | 35 | 1009.0 |
| 20260504213431 | 22 | 188 | 4.8 | 17.7 | 0.00 | 0.00 | 0.00 | 35 | 1009.1 |
| 20260504212934 | 22 | 163 | 9.7 | 16.1 | 0.00 | 0.00 | 0.00 | 33 | 1009.1 |
| 20260504212431 | 23 | 248 | 1.6 | 9.7 | 0.00 | 0.00 | 0.00 | 33 | 1008.9 |
| 20260504211937 | 23 | 171 | 1.6 | 9.7 | 0.00 | 0.00 | 0.00 | 33 | 1009.0 |
| 20260504211434 | 23 | 319 | 4.8 | 9.7 | 0.00 | 0.00 | 0.00 | 34 | 1009.1 |
| 20260504210938 | 23 | 221 | 0.0 | 11.3 | 0.00 | 0.00 | 0.00 | 33 | 1009.1 |
| 20260504210437 | 23 | 235 | 9.7 | 11.3 | 0.00 | 0.00 | 0.00 | 33 | 1009.2 |
| 20260504205931 | 23 | 295 | 4.8 | 22.5 | 0.00 | 0.00 | 0.00 | 34 | 1009.1 |
| 20260504205431 | 23 | 173 | 0.0 | 17.7 | 0.00 | 0.00 | 0.00 | 32 | 1009.2 |
| 20260504204934 | 23 | 185 | 1.6 | 11.3 | 0.00 | 0.00 | 0.00 | 33 | 1009.1 |
| 20260504204434 | 22 | 164 | 4.8 | 19.3 | 0.00 | 0.00 | 0.00 | 34 | 1009.1 |
| 20260504203934 | 23 | 194 | 1.6 | 11.3 | 0.00 | 0.00 | 0.00 | 32 | 1009.1 |
| 20260504203431 | 23 | 238 | 6.4 | 20.9 | 0.00 | 0.00 | 0.00 | 32 | 1009.2 |
| 20260504202934 | 23 | 303 | 4.8 | 8.0 | 0.00 | 0.00 | 0.00 | 32 | 1009.1 |
| 20260504202435 | 23 | 153 | 1.6 | 12.9 | 0.00 | 0.00 | 0.00 | 33 | 1009.2 |
| 20260504201935 | 23 | 223 | 6.4 | 16.1 | 0.00 | 0.00 | 0.00 | 32 | 1009.1 |
| 20260504201435 | 23 | 198 | 4.8 | 17.7 | 0.00 | 0.00 | 0.00 | 32 | 1009.1 |
| 20260504200932 | 23 | 192 | 1.6 | 14.5 | 0.00 | 0.00 | 0.00 | 34 | 1009.1 |
| 20260504200441 | 23 | 157 | 11.3 | 29.0 | 0.00 | 0.00 | 0.00 | 31 | 1009.1 |
| 20260504195934 | 23 | 165 | 11.3 | 14.5 | 0.00 | 0.00 | 0.00 | 33 | 1009.2 |
| 20260504195432 | 23 | 274 | 1.6 | 24.1 | 0.00 | 0.00 | 0.00 | 34 | 1009.2 |
| 20260504194934 | 22 | 161 | 16.1 | 22.5 | 0.00 | 0.00 | 0.00 | 33 | 1009.3 |
| 20260504194431 | 22 | 150 | 6.4 | 25.7 | 0.00 | 0.00 | 0.00 | 30 | 1009.3 |
| 20260504193931 | 23 | 183 | 6.4 | 17.7 | 0.00 | 0.00 | 0.00 | 33 | 1009.4 |
| 20260504193431 | 23 | 173 | 1.6 | 17.7 | 0.00 | 0.00 | 0.00 | 33 | 1009.4 |
| 20260504192940 | 22 | 130 | 6.4 | 22.5 | 0.00 | 0.00 | 0.00 | 32 | 1009.4 |
| 20260504192431 | 23 | 147 | 1.6 | 12.9 | 0.00 | 0.00 | 0.00 | 33 | 1009.5 |
| 20260504191931 | 23 | 145 | 11.3 | 16.1 | 0.00 | 0.00 | 0.00 | 32 | 1009.6 |
| 20260504191434 | 23 | 195 | 1.6 | 17.7 | 0.00 | 0.00 | 0.00 | 34 | 1009.7 |
| 20260504190935 | 23 | 178 | 9.7 | 19.3 | 0.00 | 0.00 | 0.00 | 32 | 1009.8 |
| 20260504190434 | 23 | 171 | 20.9 | 24.1 | 0.00 | 0.00 | 0.00 | 33 | 1009.8 |
| 20260504185938 | 22 | 163 | 33.8 | 35.4 | 0.00 | 0.00 | 0.00 | 33 | 1009.8 |
| 20260504185437 | 22 | 134 | 6.4 | 25.7 | 0.00 | 0.00 | 0.00 | 31 | 1009.9 |
| 20260504184931 | 23 | 171 | 25.7 | 20.9 | 0.00 | 0.00 | 0.00 | 36 | 1009.9 |
| 20260504184431 | 23 | 172 | 6.4 | 20.9 | 0.00 | 0.00 | 0.00 | 31 | 1010.1 |
| 20260504183932 | 23 | 155 | 14.5 | 19.3 | 0.00 | 0.00 | 0.00 | 31 | 1010.1 |
| 20260504183431 | 23 | 159 | 9.7 | 16.1 | 0.00 | 0.00 | 0.00 | 32 | 1010.2 |
| 20260504182931 | 23 | 207 | 4.8 | 17.7 | 0.00 | 0.00 | 0.00 | 33 | 1010.3 |
| 20260504182431 | 23 | 244 | 9.7 | 16.1 | 0.00 | 0.00 | 0.00 | 32 | 1010.3 |
| 20260504181931 | 24 | 229 | 6.4 | 11.3 | 0.00 | 0.00 | 0.00 | 34 | 1010.5 |
| 20260504181431 | 23 | 230 | 4.8 | 11.3 | 0.00 | 0.00 | 0.00 | 33 | 1010.5 |
| 20260504180932 | 24 | 157 | 6.4 | 11.3 | 0.00 | 0.00 | 0.00 | 32 | 1010.6 |
| 20260504180437 | 24 | 217 | 6.4 | 12.9 | 0.00 | 0.00 | 0.00 | 33 | 1010.5 |
| 20260504175932 | 23 | 158 | 6.4 | 17.7 | 0.00 | 0.00 | 0.00 | 30 | 1010.6 |
| 20260504175431 | 23 | 125 | 1.6 | 16.1 | 0.00 | 0.00 | 0.00 | 33 | 1010.7 |
| 20260504174932 | 23 | 159 | 0.0 | 17.7 | 0.00 | 0.00 | 0.00 | 33 | 1010.8 |
| 20260504174431 | 23 | 176 | 11.3 | 19.3 | 0.00 | 0.00 | 0.00 | 31 | 1010.8 |
| 20260504173931 | 23 | 258 | 16.1 | 17.7 | 0.00 | 0.00 | 0.00 | 33 | 1010.8 |
| 20260504173435 | 23 | 290 | 1.6 | 8.0 | 0.00 | 0.00 | 0.00 | 35 | 1011.0 |
| 20260504172931 | 23 | 65 | 4.8 | 17.7 | 0.00 | 0.00 | 0.00 | 33 | 1011.1 |
| 20260504172434 | 23 | 151 | 6.4 | 12.9 | 0.00 | 0.00 | 0.00 | 34 | 1011.1 |
| 20260504171937 | 23 | 218 | 4.8 | 11.3 | 0.00 | 0.00 | 0.00 | 35 | 1011.1 |
| 20260504171431 | 22 | 355 | 4.8 | 19.3 | 0.00 | 0.00 | 0.00 | 35 | 1011.3 |
| 20260504170938 | 23 | 155 | 14.5 | 16.1 | 0.00 | 0.00 | 0.00 | 35 | 1011.3 |
| 20260504170434 | 23 | 146 | 1.6 | 11.3 | 0.00 | 0.00 | 0.00 | 33 | 1011.4 |
| 20260504160434 | 22 | 154 | 14.5 | 14.5 | 0.00 | 0.00 | 0.00 | 36 | 1012.2 |
| 20260504150931 | 20 | 142 | 1.6 | 19.3 | 0.00 | 0.00 | 0.00 | 42 | 1012.7 |
| 20260504150432 | 20 | 198 | 1.6 | 12.9 | 0.00 | 0.00 | 0.00 | 43 | 1012.7 |
| 20260504140937 | 18 | 253 | 4.8 | 20.9 | 0.00 | 0.00 | 0.00 | 49 | 1012.9 |
| 20260504140431 | 18 | 214 | 1.6 | 11.3 | 0.00 | 0.00 | 0.00 | 49 | 1013.0 |
| 20260504130437 | 16 | 150 | 25.7 | 17.7 | 0.00 | 0.00 | 0.00 | 56 | 1013.4 |